Weather History for KCRP - April, 2012

Change the Weather History Date:

Tuesday, April 3, 2012

  Actual Average Record
Temperature  
Mean Temperature 82 °F 70 °F  
Max Temperature 90 °F 80 °F 92 °F (1977)
Min Temperature 74 °F 60 °F 33 °F (1987)
Degree Days  
Heating Degree Days 0 1  
Month to date heating degree days 0 3  
Since 1 July heating degree days 611 884  
Cooling Degree Days 17 6  
Month to date cooling degree days 42 18  
Year to date cooling degree days 445 209  
Growing Degree Days 30 (Base 50)    
Moisture  
Dew Point 72 °F    
Average Humidity 76    
Maximum Humidity 94    
Minimum Humidity 57    
Precipitation  
Precipitation 0.00 in 0.05 in 1.52 in (1997)
Month to date precipitation 0.41 0.16  
Year to date precipitation 6.30 5.52  
Snow  
Snow 0.00 in - - ()
Month to date snowfall 0.0  
Since 1 July snowfall 0.0  
Snow Depth 0.00 in    
Sea Level Pressure  
Sea Level Pressure 29.71 in    
Wind  
Wind Speed 14 mph (SE)    
Max Wind Speed 26 mph    
Max Gust Speed 31 mph    
Visibility 7 miles    
Events      
T = Trace of Precipitation, MM = Missing Value Source: NWS Daily Summary

Daily Weather History Graph

Daily Weather History Graph

Search for Another Location

Airport or City:

Trip Planner

Search our weather history database for the weather conditions in past years. The results will help you decide how hot, cold, wet, or windy it might be!

Date:

Astronomy

Apr. 03, 2012 Rise Set
Actual Time 7:17 AM CDT 7:49 PM CDT
Civil Twilight 6:54 AM CDT 8:12 PM CDT
Nautical Twilight 6:26 AM CDT 8:40 PM CDT
Astronomical Twilight 5:58 AM CDT 9:08 PM CDT
Moon 4:48 PM CDT (4/3) 4:49 AM CDT (4/3)
Length of Visible Light 13h 18m
Length of Day
12h 31m
Waxing Gibbous, 87% of the Moon is Illuminated
Apr 3
Waxing Gibbous
Apr 6
Full
Apr 13
Last Quarter
Apr 21
New
Apr 29
First Quarter

Hourly Weather History & Observations

Time (CDT) Temp. Heat Index Dew Point Humidity Pressure Visibility Wind Dir Wind Speed Gust Speed Precip Events Conditions
12:51 AM 75.9 °F - 72.0 °F 87% 29.64 in 9.0 mi SSE 15.0 mph - N/A   Overcast
1:51 AM 75.9 °F - 72.0 °F 87% 29.64 in 9.0 mi SE 16.1 mph - N/A   Overcast
2:51 AM 75.9 °F - 72.0 °F 87% 29.64 in 8.0 mi SE 15.0 mph - N/A   Overcast
3:51 AM 75.9 °F - 72.0 °F 87% 29.64 in 7.0 mi SE 17.3 mph - N/A   Overcast
4:51 AM 75.9 °F - 71.1 °F 85% 29.64 in 8.0 mi SE 20.7 mph 29.9 mph N/A   Overcast
5:51 AM 75.9 °F - 71.1 °F 85% 29.64 in 8.0 mi SSE 23.0 mph 28.8 mph N/A   Overcast
6:51 AM 75.9 °F - 71.1 °F 85% 29.65 in 8.0 mi SSE 20.7 mph 27.6 mph N/A   Overcast
7:51 AM 75.9 °F - 71.1 °F 85% 29.67 in 8.0 mi SE 20.7 mph 31.1 mph N/A   Scattered Clouds
8:51 AM 77.0 °F - 72.0 °F 84% 29.73 in 7.0 mi SSE 16.1 mph - N/A   Mostly Cloudy
9:51 AM 78.1 °F - 71.1 °F 79% 29.74 in 6.0 mi SSE 20.7 mph 28.8 mph N/A   Haze
10:51 AM 79.0 °F - 72.0 °F 79% 29.76 in 6.0 mi SSE 18.4 mph - N/A   Haze
11:51 AM 80.1 °F 83.6 °F 71.1 °F 74% 29.78 in 7.0 mi South 16.1 mph - N/A   Overcast
12:51 PM 82.9 °F 88.0 °F 72.0 °F 69% 29.76 in 7.0 mi SSE 15.0 mph - N/A   Overcast
1:01 PM 84.2 °F 89.6 °F 71.6 °F 66% 29.76 in 7.0 mi SE 13.8 mph - N/A   Mostly Cloudy
1:51 PM 84.0 °F 89.6 °F 72.0 °F 67% 29.74 in 7.0 mi SSE 8.1 mph - N/A   Mostly Cloudy
2:51 PM 86.0 °F 90.1 °F 69.1 °F 57% 29.73 in 9.0 mi Variable 3.5 mph - N/A   Mostly Cloudy
3:51 PM 86.0 °F 93.0 °F 73.0 °F 65% 29.70 in 7.0 mi East 16.1 mph 19.6 mph N/A   Overcast
4:05 PM 84.2 °F 90.9 °F 73.4 °F 70% 29.70 in 7.0 mi East 11.5 mph - N/A   Mostly Cloudy
4:51 PM 84.0 °F 90.2 °F 73.0 °F 69% 29.69 in 8.0 mi ESE 11.5 mph 20.7 mph N/A   Mostly Cloudy
5:51 PM 84.0 °F 90.2 °F 73.0 °F 69% 29.69 in 7.0 mi ESE 13.8 mph - N/A   Partly Cloudy
6:51 PM 81.0 °F 85.8 °F 73.0 °F 77% 29.69 in 7.0 mi SE 13.8 mph - N/A   Clear
7:51 PM 78.1 °F - 73.0 °F 84% 29.70 in 7.0 mi SE 13.8 mph - N/A   Clear
8:51 PM 77.0 °F - 73.0 °F 88% 29.72 in 8.0 mi SSE 11.5 mph - N/A   Clear
9:51 PM 75.9 °F - 73.0 °F 91% 29.74 in 8.0 mi SSE 8.1 mph - N/A   Clear
10:41 PM 75.2 °F - 73.4 °F 94% 29.76 in 6.0 mi South 3.5 mph - N/A   Scattered Clouds
10:51 PM 75.0 °F - 73.0 °F 94% 29.77 in 6.0 mi Calm Calm - N/A   Scattered Clouds
11:05 PM 73.4 °F - 71.6 °F 94% 29.76 in 5.0 mi South 4.6 mph - N/A   Mostly Cloudy
11:12 PM 73.4 °F - 71.6 °F 94% 29.76 in 4.0 mi South 3.5 mph - N/A   Mostly Cloudy
11:35 PM 75.2 °F - 71.6 °F 89% 29.77 in 4.0 mi Calm Calm - N/A   Overcast
11:51 PM 75.0 °F - 73.0 °F 94% 29.78 in 4.0 mi Calm Calm - N/A   Overcast